Regional Weather Roundup
Issued by NWS Sterling, VA

Home | Current Version | Previous Version | Graphics & Text | Print | Product List | Glossary On
Versions: 1 2 3 4 5 6 7 8 9 10 11 12 13 14 15 16 17 18 19 20 21 22 23 24 25 26 27
000
ASUS41 KLWX 191111
RWRLWX

REGIONAL WEATHER ROUNDUP
NATIONAL WEATHER SERVICE BALTIMORE MD/WASHINGTON DC
700 AM EDT TUE SEP 19 2017

Note: "FAIR" indicates few or no clouds below 12,000 feet
with no significant weather and/or obstructions to visibility.
 TC=TEMPERATURE CELSIUS

 * =Non NWS site. Station does not report precipitation (e.g. rain,
    snow, etc.), thunder, or fog.

DCZ001-MDZ009-015-VAZ040>042-051-053>054-191200-
WASHINGTON METRO

CITY           SKY/WX    TMP DP  RH WIND       PRES   REMARKS
WASHINGTON NAT CLOUDY    69  66  90 N14       30.00S
DULLES         MOCLDY    67  65  93 N10       30.01S
ANDREWS AFB    CLOUDY    67  65  93 N9        29.98S
FT BELVOIR     MOCLDY    68  64  88 NW6       29.99R
QUANTICO       MOCLDY    68  66  93 N13       30.00R
COLLEGE PARK*  CLOUDY    66  64  91 N6        29.99S
LEESBURG*      CLOUDY    68  68 100 NE7       30.04R
MANASSAS*      CLOUDY    67  64  90 N10       30.01S
GAITHERSBURG*  CLOUDY    64  63  96 CALM      30.03S

$$

MDZ006>007-011-014-191200-
BALTIMORE METRO

CITY           SKY/WX    TMP DP  RH WIND       PRES   REMARKS
BWI AIRPORT    MOCLDY    69  66  90 N5        29.99S
MD SCIENCE CTR   N/A     71  66  84 MISG      29.99F
MARTIN STATE   MOCLDY    70  70 100 NW6       30.00S
ANNAPOLIS      MOCLDY    73  70  90 N12       29.97S
FORT MEADE*    CLOUDY    66  63  88 CALM      30.02R

$$

MDZ012-015-019>023-191200-
MARYLAND EASTERN SHORE

CITY           SKY/WX    TMP DP  RH WIND       PRES   REMARKS
OCEAN CITY     LGT RAIN  71  70  96 N18G29    29.86F
SALISBURY      CLOUDY    71  68  90 N14G22    29.90R
CAMBRIDGE*     CLOUDY    72  68  88 N12       29.93S
EASTON*        MOCLDY    72  66  83 N10G17    29.99R

$$

MDZ017>025-191200-
SOUTHERN MARYLAND

CITY           SKY/WX    TMP DP  RH WIND       PRES   REMARKS
PATUXENT RIVER MOCLDY    71  68  90 N15       29.94S
ST INIGOES     NOT AVBL
LEONARDTOWN*   MOCLDY    70  64  83 N5        29.97R

$$

MDZ003>005-191200-
NORTH CENTRAL MARYLAND

CITY           SKY/WX    TMP DP  RH WIND       PRES   REMARKS
FREDERICK*     CLOUDY    68  68 100 N5        30.06S FOG
HAGERSTOWN APT CLOUDY    66  63  90 NW5       30.05S
WESTMINSTER*   CLOUDY    66  64  94 NE5       30.04S FOG

$$

MDZ501>502-191200-
WESTERN MARYLAND

CITY           SKY/WX    TMP DP  RH WIND       PRES   REMARKS
OAKLAND*       CLOUDY    55  55 100 SE8       30.08S VSB 1/4
CUMBERLAND*    CLOUDY    64  64 100 CALM      30.10S

$$

VAZ025>031-191200-
SHENANDOAH VALLEY

CITY           SKY/WX    TMP DP  RH WIND       PRES   REMARKS
WINCHESTER*    CLOUDY    63  63 100 CALM      30.05S FOG
FRONT ROYAL*   CLOUDY    64  64 100 N3        30.04S
LURAY*         CLOUDY    63  63 100 CALM      30.05S FOG
NEW MARKET*    CLOUDY    61  60  96 CALM      30.05S VSB<1/4
STAUNTON*      CLOUDY    64  62  95 CALM      30.07S FOG
WAYNESBORO*    CLOUDY    64  64 100 CALM      30.06S

$$

WVZ021-048>050-054>055-191200-
EASTERN WEST VIRGINIA PANHANDLE

CITY           SKY/WX    TMP DP  RH WIND       PRES   REMARKS
MARTINSBURG    CLEAR     64  62  93 N3        30.04S FOG
PETERSBURG*    CLOUDY    66  65  96 CALM      30.06S FOG

$$

VAZ036>039-050-191200-
CENTRAL FOOTHILLS

CITY           SKY/WX    TMP DP  RH WIND       PRES   REMARKS
CHARLOTTESVILL CLEAR     65  63  93 N3        30.02S
CULPEPER*      PTCLDY    67  65  96 NE6       30.02S
ORANGE*        PTCLDY    63  63 100 CALM      30.01S
GORDONSVILLE*  CLEAR     66  65  97 NE3       30.01S
WARRENTON*     CLOUDY    69  63  82 N8G17     30.01R

$$

VAZ055>057-191200-
NORTH AND CENTRAL PIEDMONT

CITY           SKY/WX    TMP DP  RH WIND       PRES   REMARKS
FREDERICKSBRG* PTCLDY    67  67 100 NW6       29.99R
STAFFORD*      CLEAR     65  65 100 N9        30.03S

$$

NCZ024-NYZ072-PAZ021-071-VAZ022-071-191200-
OTHER REGIONAL OBSERVATIONS

CITY           SKY/WX    TMP DP  RH WIND       PRES   REMARKS
NEW YORK CITY  CLOUDY    71  65  81 E8        30.04F
PHILADELPHIA   MOCLDY    71  66  84 N15       29.98F
PITTSBURGH     CLOUDY    62  62 100 E6        30.04R
ROANOKE        CLOUDY    64  62  93 CALM      30.06R
RICHMOND       MOCLDY    67  66  97 N13       29.95S
RALEIGH        MOCLDY    66  65  96 NE3       29.99R

$$

ANZ530>537-191200-
MARINE OBSERVATIONS

STATION/POSITION TIME  TEMP    WIND        PRES
                       AIR SEA DIR/SP/G
                 (UTC) (F)     (DEG/KT/KT) (MB)
THOMAS PT LIGHT  1100   71 75  360/ 17/ 18   N/A
BALT KEY BRIDGE  1042   70     350/ 10/ 12 1015.2F
COVE POINT       1042   72      20/ 17/ 25 1014.5S
LEWISETTA        1042   72 76   20/ 12/ 21 1013.4R
SOLOMONS ISLAND  1042   72 76  360/ 13/ 20 1013.5R
PINEY POINT      1042           20/ 14/ 16   N/A

$$





USA.gov is the U.S. government's official web portal to all federal, state and local government web resources and services.